Weather History for Jefferson, GA

Change the Weather History Date:

Monday, March 11, 2013

  Actual Average (KGVL) Record (KGVL)
Temperature  
Mean Temperature 56 °F 51 °F  
Max Temperature 62 °F 61 °F 85 °F (1974)
Min Temperature 50 °F 42 °F 19 °F (1934)
Degree Days  
Heating Degree Days 9 14  
Month to date heating degree days 166  
Since 1 July heating degree days 2630  
Cooling Degree Days 0 0  
Month to date cooling degree days 0  
Year to date cooling degree days 0  
Growing Degree Days 6 (Base 50)    
Moisture  
Dew Point 44 °F    
Average Humidity 67    
Maximum Humidity 100    
Minimum Humidity 44    
Precipitation  
Precipitation 0.00 in 0.18 in 4.24 in (1952)
Month to date precipitation 2.09  
Year to date precipitation 11.99  
Snow  
Snow 0.00 in - - ()
Month to date snowfall  
Since 1 July snowfall  
Snow Depth -    
Sea Level Pressure  
Sea Level Pressure 29.97 in    
Wind  
Wind Speed 5 mph (SE)    
Max Wind Speed 12 mph    
Max Gust Speed 18 mph    
Visibility 9 miles    
Events Rain    
T = Trace of Precipitation, MM = Missing Value Source: NWS Daily Summary

Daily Weather History Graph

Daily Weather History Graph

Search for Another Location

Airport:

Trip Planner

Search our weather history database for the weather conditions in past years. The results will help you decide how hot, cold, wet, or windy it might be!

Date:

Astronomy

Mar. 11, 2013 Rise Set
Actual Time 7:49 AM EDT 7:39 PM EDT
Civil Twilight 7:24 AM EDT 8:04 PM EDT
Nautical Twilight 6:55 AM EDT 8:33 PM EDT
Astronomical Twilight 6:26 AM EDT 9:02 PM EDT
Moon 7:24 AM EDT (3/11) 7:47 PM EDT (3/11)
Length of Visible Light 12h 39m
Length of Day
11h 49m
Waning Crescent, 0% of the Moon is Illuminated
Mar 11
Waning Crescent
Mar 11
New
Mar 19
First Quarter
Mar 27
Full
Apr 3
Last Quarter

Hourly Weather History & Observations

Time (EDT) Temp. Dew Point Humidity Pressure Visibility Wind Dir Wind Speed Gust Speed Precip Events Conditions
12:15 AM 55.4 °F 33.8 °F 44% 30.12 in 10.0 mi ESE 8.1 mph - N/A   Clear
12:35 AM 53.6 °F 35.6 °F 51% 30.12 in 10.0 mi ESE 6.9 mph - N/A   Clear
12:55 AM 53.6 °F 35.6 °F 51% 30.11 in 10.0 mi SE 6.9 mph - N/A   Clear
1:15 AM 53.6 °F 37.4 °F 54% 30.11 in 10.0 mi ESE 5.8 mph - N/A   Clear
1:35 AM 51.8 °F 37.4 °F 58% 30.11 in 10.0 mi ESE 4.6 mph - N/A   Clear
1:55 AM 51.8 °F 37.4 °F 58% 30.11 in 10.0 mi ESE 3.5 mph - N/A   Clear
2:15 AM 51.8 °F 37.4 °F 58% 30.11 in 10.0 mi ESE 3.5 mph - N/A   Clear
2:55 AM 51.8 °F 39.2 °F 62% 30.10 in 10.0 mi ESE 4.6 mph - N/A   Clear
3:15 AM 50.0 °F 41.0 °F 71% 30.10 in 10.0 mi ESE 3.5 mph - N/A   Clear
3:35 AM 50.0 °F 39.2 °F 66% 30.09 in 10.0 mi Calm Calm - N/A   Scattered Clouds
3:55 AM 50.0 °F 41.0 °F 71% 30.09 in 10.0 mi ESE 3.5 mph - N/A   Mostly Cloudy
4:35 AM 51.8 °F 41.0 °F 67% 30.07 in 10.0 mi ESE 4.6 mph - N/A   Overcast
4:55 AM 51.8 °F 42.8 °F 71% 30.06 in 10.0 mi ESE 6.9 mph - N/A   Overcast
5:15 AM 51.8 °F 42.8 °F 71% 30.05 in 10.0 mi ESE 4.6 mph - N/A   Overcast
5:35 AM 51.8 °F 42.8 °F 71% 30.05 in 10.0 mi ESE 3.5 mph - N/A   Overcast
5:55 AM 51.8 °F 42.8 °F 71% 30.05 in 10.0 mi ESE 4.6 mph - N/A   Overcast
6:15 AM 51.8 °F 41.0 °F 67% 30.06 in 10.0 mi Calm Calm - N/A   Overcast
6:35 AM 51.8 °F 41.0 °F 67% 30.06 in 10.0 mi Calm Calm - N/A   Overcast
6:55 AM 51.8 °F 41.0 °F 67% 30.07 in 10.0 mi Calm Calm - N/A   Overcast
7:15 AM 51.8 °F 41.0 °F 67% 30.08 in 10.0 mi Calm Calm - N/A   Overcast
7:35 AM 51.8 °F 41.0 °F 67% 30.08 in 10.0 mi Calm Calm - N/A   Overcast
7:55 AM 51.8 °F 41.0 °F 67% 30.08 in 10.0 mi Calm Calm - N/A   Overcast
8:15 AM 51.8 °F 41.0 °F 67% 30.07 in 10.0 mi Calm Calm - N/A   Overcast
8:35 AM 51.8 °F 41.0 °F 67% 30.06 in 10.0 mi East 3.5 mph - N/A   Overcast
8:55 AM 51.8 °F 41.0 °F 67% 30.06 in 10.0 mi ESE 4.6 mph - N/A   Overcast
9:15 AM 51.8 °F 41.0 °F 67% 30.05 in 10.0 mi ESE 4.6 mph - N/A   Overcast
9:35 AM 51.8 °F 41.0 °F 67% 30.06 in 10.0 mi ESE 5.8 mph - N/A   Overcast
9:55 AM 51.8 °F 41.0 °F 67% 30.06 in 10.0 mi ESE 8.1 mph - N/A   Overcast
10:15 AM 53.6 °F 41.0 °F 62% 30.05 in 10.0 mi SE 6.9 mph - N/A   Overcast
10:35 AM 53.6 °F 41.0 °F 62% 30.04 in 10.0 mi SE 5.8 mph - N/A   Overcast
10:55 AM 55.4 °F 41.0 °F 58% 30.03 in 10.0 mi SSE 6.9 mph - N/A   Overcast
11:15 AM 55.4 °F 41.0 °F 58% 30.03 in 10.0 mi SSE 6.9 mph - N/A   Overcast
11:35 AM 55.4 °F 41.0 °F 58% 30.01 in 10.0 mi SSE 5.8 mph - N/A   Overcast
11:55 AM 57.2 °F 42.8 °F 59% 30.01 in 10.0 mi SE 5.8 mph - N/A   Overcast
12:15 PM 59.0 °F 42.8 °F 55% 30.01 in 10.0 mi South 8.1 mph - N/A   Overcast
12:35 PM 59.0 °F 42.8 °F 55% 30.00 in 10.0 mi South 11.5 mph 17.3 mph N/A   Overcast
12:55 PM 59.0 °F 42.8 °F 55% 29.99 in 10.0 mi South 10.4 mph 17.3 mph N/A   Overcast
1:15 PM 59.0 °F 42.8 °F 55% 29.98 in 10.0 mi SSE 8.1 mph 17.3 mph N/A   Mostly Cloudy
1:35 PM 60.8 °F 42.8 °F 52% 29.95 in 10.0 mi SE 8.1 mph 17.3 mph N/A   Scattered Clouds
1:55 PM 60.8 °F 42.8 °F 52% 29.93 in 10.0 mi SSE 5.8 mph 18.4 mph N/A   Scattered Clouds
2:15 PM 62.6 °F 42.8 °F 48% 29.90 in 10.0 mi SE 8.1 mph 17.3 mph N/A   Scattered Clouds
2:35 PM 62.6 °F 42.8 °F 48% 29.90 in 10.0 mi South 8.1 mph - N/A   Scattered Clouds
2:55 PM 62.6 °F 42.8 °F 48% 29.89 in 10.0 mi SSE 8.1 mph - N/A   Overcast
3:15 PM 62.6 °F 42.8 °F 48% 29.89 in 10.0 mi SSE 10.4 mph - N/A   Overcast
3:35 PM 62.6 °F 42.8 °F 48% 29.87 in 10.0 mi SSE 6.9 mph - N/A   Overcast
3:55 PM 62.6 °F 42.8 °F 48% 29.87 in 10.0 mi South 9.2 mph - N/A   Overcast
4:15 PM 62.6 °F 42.8 °F 48% 29.86 in 10.0 mi SSE 10.4 mph - N/A Rain Light Rain
4:35 PM 62.6 °F 42.8 °F 48% 29.84 in 10.0 mi SSE 8.1 mph - N/A Rain Light Rain
4:55 PM 62.6 °F 44.6 °F 52% 29.83 in 10.0 mi SSE 5.8 mph - N/A Rain Light Rain
5:15 PM 62.6 °F 44.6 °F 52% 29.82 in 10.0 mi South 5.8 mph - N/A Rain Rain
5:35 PM 60.8 °F 44.6 °F 55% 29.81 in 10.0 mi SSE 4.6 mph - N/A Rain Light Rain
5:55 PM 60.8 °F 46.4 °F 59% 29.83 in 7.0 mi South 5.8 mph - N/A Rain Rain
6:15 PM 60.8 °F 46.4 °F 59% 29.83 in 10.0 mi SSE 3.5 mph - N/A Rain Light Rain
6:35 PM 59.0 °F 46.4 °F 63% 29.85 in 7.0 mi WNW 10.4 mph - N/A Rain Rain
6:55 PM 55.4 °F 51.8 °F 88% 29.86 in 2.0 mi NW 10.4 mph 18.4 mph N/A Rain Rain
7:15 PM 55.4 °F 51.8 °F 88% 29.86 in 5.0 mi NW 8.1 mph - N/A Rain Rain
7:35 PM 53.6 °F 51.8 °F 94% 29.87 in 5.0 mi NW 4.6 mph - N/A Rain Rain
7:55 PM 53.6 °F 53.6 °F 100% 29.86 in 4.0 mi Calm Calm - N/A Rain Rain
8:15 PM 53.6 °F 53.6 °F 100% 29.86 in 7.0 mi Calm Calm - N/A Rain Rain
8:35 PM 53.6 °F 53.6 °F 100% 29.86 in 7.0 mi Calm Calm - N/A Rain Rain
9:15 PM 53.6 °F 53.6 °F 100% 29.84 in 7.0 mi Calm Calm - N/A Rain Light Rain
9:35 PM 53.6 °F 53.6 °F 100% 29.83 in 7.0 mi East 3.5 mph - N/A Rain Rain
9:55 PM 53.6 °F 53.6 °F 100% 29.83 in 10.0 mi Calm Calm - N/A Rain Light Rain
10:15 PM 55.4 °F 53.6 °F 94% 29.83 in 10.0 mi Calm Calm - N/A   Light Drizzle
10:35 PM 55.4 °F 53.6 °F 94% 29.83 in 7.0 mi ESE 3.5 mph - N/A Rain Rain
11:15 PM 55.4 °F 53.6 °F 94% 29.82 in 5.0 mi ESE 4.6 mph - N/A Rain Rain
11:35 PM 55.4 °F 53.6 °F 94% 29.82 in 5.0 mi Calm Calm - N/A Rain Rain
11:55 PM 55.4 °F 55.4 °F 100% 29.81 in 4.0 mi SE 3.5 mph - N/A   Drizzle